FW0574 Weather Reports


time (UTC)temp
F
wind
direction
speed
knots
gust
knots
rain 1hr
in
rain 24hr
in
rain mn
in
humidity
%
barometer
mb
20260502224047 78 0 2.6 5.2 0.00 0.00 0.00 50 1006.3
20260502223046 79 23 2.6 7.0 0.00 0.00 0.00 50 1006.6
20260502222548 79 225 1.7 2.6 0.00 0.00 0.00 50 1006.6
20260502222040 78 248 1.7 7.8 0.00 0.00 0.00 50 1006.6
20260502221536 77 270 3.5 7.8 0.00 0.00 0.00 53 1007.0
20260502221035 77 315 4.3 6.1 0.00 0.00 0.00 50 1007.0
20260502220537 78 180 2.6 6.1 0.00 0.00 0.00 50 1007.0
20260502220036 79 293 3.5 6.1 0.00 0.00 0.00 49 1007.0
20260502215535 80 293 1.7 5.2 0.00 0.00 0.00 48 1007.0
20260502215038 80 248 1.7 5.2 0.00 0.00 0.00 50 1007.3
20260502214534 79 203 1.7 4.3 0.00 0.00 0.00 48 1007.3
20260502214035 80 0 1.7 3.5 0.00 0.00 0.00 48 1007.3
20260502213531 79 338 1.7 6.1 0.00 0.00 0.00 49 1007.3
20260502213028 78 248 2.6 6.1 0.00 0.00 0.00 53 1007.3
20260502212531 78 293 2.6 6.1 0.00 0.00 0.00 50 1007.3
20260502212025 78 270 3.5 6.1 0.00 0.00 0.00 50 1007.3
20260502211527 80 248 2.6 6.1 0.00 0.00 0.00 49 1007.3
20260502211028 79 270 2.6 6.1 0.00 0.00 0.00 49 1007.3
20260502210528 79 293 2.6 4.3 0.00 0.00 0.00 48 1007.3
20260502210027 80 270 1.7 3.5 0.00 0.00 0.00 49 1007.3
20260502205530 79 270 1.7 4.3 0.00 0.00 0.00 49 1007.7
20260502205027 77 23 2.6 5.2 0.00 0.00 0.00 50 1007.7
20260502204526 79 338 2.6 4.3 0.00 0.00 0.00 48 1007.7
20260502203523 77 180 2.6 4.3 0.00 0.00 0.00 50 1007.7
20260502203023 77 135 1.7 3.5 0.00 0.00 0.00 50 1007.7
20260502202025 76 0 1.7 5.2 0.00 0.00 0.00 51 1008.0
20260502201522 76 225 2.6 5.2 0.00 0.00 0.00 51 1008.0
20260502201021 76 45 1.7 3.5 0.00 0.00 0.00 53 1008.0
20260502200525 75 315 2.6 3.5 0.00 0.00 0.00 54 1008.3
20260502200022 76 315 1.7 3.5 0.00 0.00 0.00 53 1008.3
20260502195521 75 270 1.7 3.5 0.00 0.00 0.00 55 1008.3
20260502194519 73 315 2.6 5.2 0.00 0.00 0.00 56 1008.7
20260502193515 74 293 2.6 5.2 0.00 0.00 0.00 55 1008.7
20260502193015 74 338 2.6 5.2 0.00 0.00 0.00 56 1008.7
20260502192516 73 315 2.6 4.3 0.00 0.00 0.00 58 1009.1
20260502191513 70 270 2.6 5.2 0.00 0.00 0.00 61 1008.7
20260502191009 70 203 3.5 5.2 0.00 0.00 0.00 61 1009.1
20260502190009 69 0 2.6 4.3 0.00 0.00 0.00 63 1009.1
20260502185506 69 270 1.7 3.5 0.00 0.00 0.00 63 1009.1
20260502185007 68 203 2.6 4.3 0.00 0.00 0.00 65 1009.1
20260502184506 67 0 2.6 5.2 0.00 0.00 0.00 66 1009.1
20260502184001 67 293 3.5 5.2 0.00 0.00 0.00 65 1009.1
20260502183504 68 23 1.7 4.3 0.00 0.00 0.00 65 1009.1
20260502183000 67 270 2.6 4.3 0.00 0.00 0.00 66 1009.1
20260502182500 68 23 2.6 4.3 0.00 0.00 0.00 63 1009.1
20260502181959 69 338 1.7 2.6 0.00 0.00 0.00 63 1009.1
20260502181500 68 270 0.9 2.6 0.00 0.00 0.00 63 1009.1
20260502180959 68 270 1.7 2.6 0.00 0.00 0.00 63 1009.1
20260502180456 68 23 1.7 2.6 0.00 0.00 0.00 63 1009.1
20260502170450 65 113 1.7 3.5 0.00 0.00 0.00 70 1009.1
20260502163947 62 315 1.7 3.5 0.00 0.00 0.00 76 1009.1
20260502161946 61 338 0.9 3.5 0.00 0.00 0.00 81 1009.1
20260502161447 60 270 1.7 3.5 0.00 0.00 0.00 83 1009.1
20260502160946 59 270 0.9 2.6 0.00 0.00 0.00 85 1009.1
20260502160448 59 315 0.9 2.6 0.00 0.00 0.00 85 1009.1
20260502151441 57 338 1.7 3.5 0.00 0.00 0.00 90 1008.3
20260502150938 57 0 0.9 2.6 0.00 0.00 0.00 90 1008.3
20260502150434 57 0 1.7 2.6 0.00 0.00 0.00 90 1008.3
20260502130419 56 158 0.9 1.7 0.00 0.00 0.00 90 1007.7
20260502123420 56 270 0.0 0.9 0.00 0.00 0.00 91 1007.3
20260502122916 56 270 0.0 0.9 0.00 0.00 0.00 91 1007.3
20260502122416 56 315 0.0 0.9 0.00 0.00 0.00 91 1007.3
20260502121916 56 270 0.0 0.9 0.00 0.00 0.00 91 1007.3
20260502121415 56 23 0.0 1.7 0.00 0.00 0.00 91 1007.3
20260502120412 56 248 0.0 0.9 0.00 0.00 0.00 91 1007.3
20260502115909 56 338 0.0 1.7 0.00 0.00 0.00 91 1007.3
20260502115411 56 270 0.0 1.7 0.00 0.00 0.00 91 1007.3
20260502114909 56 315 0.9 1.7 0.00 0.00 0.00 91 1007.7
20260502114412 56 315 0.0 0.9 0.00 0.00 0.00 91 1007.3
20260502113911 56 270 0.0 0.9 0.00 0.00 0.00 91 1007.7
20260502113409 56 248 0.0 0.9 0.00 0.00 0.00 91 1007.7
20260502112908 56 0 0.0 0.9 0.00 0.00 0.00 91 1007.7
20260502112407 56 270 0.0 0.9 0.00 0.00 0.00 91 1007.3
20260502111409 56 270 0.9 2.6 0.00 0.00 0.00 91 1007.3
20260502110910 56 45 0.9 2.6 0.00 0.00 0.00 91 1007.3
20260502105912 56 270 0.0 1.7 0.00 0.00 0.00 91 1007.3
20260502105410 56 270 0.9 1.7 0.00 0.00 0.00 91 1007.3
20260502104910 56 270 0.9 1.7 0.00 0.00 0.00 90 1007.3
20260502104410 56 270 0.9 1.7 0.00 0.00 0.00 90 1007.3
20260502103909 57 293 0.0 1.7 0.00 0.00 0.00 90 1007.7
20260502102907 57 293 0.0 1.7 0.00 0.00 0.00 90 1007.7
20260502101911 57 293 0.0 1.7 0.00 0.00 0.00 90 1007.7
20260502100909 57 270 0.0 0.9 0.00 0.00 0.00 90 1007.7
20260502100409 56 270 0.0 2.6 0.00 0.00 0.00 90 1007.7
20260502091352 56 270 0.9 1.7 0.00 0.00 0.00 90 1008.0
20260502090851 56 270 0.9 1.7 0.00 0.00 0.00 90 1008.0
20260502090351 56 270 1.7 1.7 0.00 0.00 0.00 90 1008.0
20260502071330 57 293 0.9 1.7 0.00 0.00 0.00 88 1008.7
20260502065805 57 293 0.9 2.6 0.00 0.00 0.00 90 1008.7
20260502065305 57 270 1.7 2.6 0.00 0.00 0.00 88 1008.7
20260502064802 57 293 1.7 2.6 0.00 0.00 0.00 88 1008.7
20260502064302 57 270 0.0 1.7 0.00 0.00 0.00 88 1008.7
20260502063802 57 270 0.9 2.6 0.00 0.00 0.00 88 1008.7
20260502063302 57 270 1.7 2.6 0.00 0.00 0.00 88 1008.7
20260502062259 57 293 1.7 2.6 0.00 0.00 0.00 88 1008.7
20260502061757 57 293 1.7 4.3 0.00 0.00 0.00 88 1008.7
20260502060758 57 293 0.9 2.6 0.00 0.00 0.00 88 1008.7
20260502060257 57 293 1.7 2.6 0.00 0.00 0.00 88 1008.7
20260502055755 57 293 1.7 2.6 0.00 0.00 0.00 88 1009.1
20260502054754 57 225 1.7 1.7 0.00 0.00 0.00 88 1009.1
20260502053253 57 225 1.7 3.5 0.00 0.00 0.00 90 1009.1
20260502052753 57 158 1.7 3.5 0.00 0.00 0.00 90 1009.1
20260502052251 57 270 2.6 3.5 0.00 0.00 0.00 91 1009.1
20260502051751 56 315 0.9 2.6 0.00 0.00 0.00 91 1008.7
20260502051248 56 270 0.9 2.6 0.00 0.00 0.00 91 1009.1
20260502050742 56 293 1.7 3.5 0.00 0.00 0.00 91 1009.1
20260502050244 56 270 1.7 4.3 0.00 0.00 0.00 91 1009.1
20260502045743 56 270 0.9 4.3 0.00 0.00 0.00 91 1009.1
20260502045242 56 225 1.7 3.5 0.00 0.00 0.00 91 1009.1
20260502044743 56 270 1.7 2.6 0.00 0.00 0.00 91 1008.7
20260502044236 56 270 1.7 2.6 0.00 0.00 0.00 91 1008.7
20260502042735 57 270 0.0 2.6 0.00 0.00 0.00 88 1008.7
20260502042234 57 270 0.9 3.5 0.00 0.00 0.00 90 1008.7
20260502041734 57 270 0.9 3.5 0.00 0.00 0.00 88 1008.3
20260502041234 58 293 0.0 0.9 0.00 0.00 0.00 86 1008.3
20260502040234 58 270 0.0 0.0 0.00 0.00 0.00 86 1008.3
20260502035734 58 270 0.0 0.9 0.00 0.00 0.00 85 1008.3
20260502035233 58 270 0.0 0.9 0.00 0.00 0.00 86 1008.3
20260502034735 58 270 0.0 2.6 0.00 0.00 0.00 86 1008.3
20260502034234 58 293 1.7 3.5 0.00 0.00 0.00 86 1008.0
20260502033735 58 225 1.7 4.3 0.00 0.00 0.00 86 1008.3
20260502033235 58 270 2.6 4.3 0.00 0.00 0.00 86 1008.3
20260502032736 59 293 0.9 3.5 0.00 0.00 0.00 86 1008.0
20260502032233 59 270 0.9 3.5 0.00 0.00 0.00 83 1008.0
20260502031733 59 293 1.7 4.3 0.00 0.00 0.00 83 1008.0
20260502030234 60 270 1.7 5.2 0.00 0.00 0.00 81 1008.0
20260502025735 61 338 1.7 5.2 0.00 0.00 0.00 80 1007.7
20260502025233 62 270 2.6 5.2 0.00 0.00 0.00 79 1007.7
20260502024731 62 315 0.9 3.5 0.00 0.00 0.00 78 1007.7
20260502024232 63 270 0.9 4.3 0.00 0.00 0.00 75 1007.7
20260502023731 63 270 1.7 4.3 0.00 0.00 0.00 75 1007.3
20260502023230 64 270 1.7 4.3 0.00 0.00 0.00 75 1007.3
20260502022732 65 248 1.7 4.3 0.00 0.00 0.00 73 1007.3
20260502022229 65 270 1.7 4.3 0.00 0.00 0.00 70 1007.3
20260502021731 66 293 1.7 5.2 0.00 0.00 0.00 69 1007.3
20260502021227 67 248 2.6 5.2 0.00 0.00 0.00 68 1007.3
20260502020727 68 270 0.9 5.2 0.00 0.00 0.00 65 1007.3
20260502020228 69 293 1.7 5.2 0.00 0.00 0.00 65 1007.3
20260502015726 69 248 1.7 4.3 0.00 0.00 0.00 65 1007.0
20260502015227 69 270 0.9 4.3 0.00 0.00 0.00 65 1007.0
20260502014725 70 270 0.9 4.3 0.00 0.00 0.00 63 1007.0
20260502013725 70 225 1.7 5.2 0.00 0.00 0.00 63 1007.0
20260502013225 71 248 2.6 5.2 0.00 0.00 0.00 61 1007.0
20260502012725 71 270 1.7 4.3 0.00 0.00 0.00 61 1007.0
20260502011722 71 270 3.5 6.1 0.00 0.00 0.00 61 1007.0
20260502011220 73 293 1.7 6.1 0.00 0.00 0.00 59 1006.6
20260502010720 73 338 2.6 5.2 0.00 0.00 0.00 58 1007.0
20260502010218 74 293 1.7 6.1 0.00 0.00 0.00 58 1007.0
20260502005715 74 23 2.6 6.1 0.00 0.00 0.00 58 1006.6
20260502004715 74 293 1.7 6.1 0.00 0.00 0.00 58 1006.6
20260502003716 75 293 3.5 5.2 0.00 0.00 0.00 56 1006.6
20260502003216 76 293 3.5 5.2 0.00 0.00 0.00 54 1006.6
20260502002216 79 225 0.9 3.5 0.00 0.00 0.00 51 1006.6
20260502001716 80 270 0.9 3.5 0.00 0.00 0.00 51 1006.6
20260502001213 80 293 1.7 3.5 0.00 0.00 0.00 51 1006.6
20260502000712 79 270 1.7 5.2 0.00 0.00 0.00 53 1006.6
20260501235711 78 270 1.7 4.3 0.00 0.00 0.00 53 1006.6
20260501233709 80 270 1.7 4.3 0.00 0.00 0.00 50 1007.3
20260501233209 81 225 1.7 3.5 0.00 0.00 0.00 50 1007.0
20260501232209 81 248 3.5 6.1 0.00 0.00 0.00 50 1007.3
20260501231707 82 270 1.7 5.2 0.00 0.00 0.00 50 1007.3
20260501231206 82 315 0.9 2.6 0.00 0.00 0.00 49 1007.3
20260501230705 81 225 1.7 2.6 0.00 0.00 0.00 50 1007.3
20260501230203 80 270 1.7 5.2 0.00 0.00 0.00 51 1007.3
20260501225704 80 338 2.6 5.2 0.00 0.00 0.00 51 1007.7
20260501225158 80 270 3.5 5.2 0.00 0.00 0.00 50 1007.7
20260501224657 81 270 2.6 5.2 0.00 0.00 0.00 49 1007.7